Regional Weather Roundup
Issued by NWS Wakefield, VA

Home | Current Version | Previous Version | Text Only | Print | Product List | Glossary On
Versions: 1 2 3 4 5 6 7 8 9 10 11 12 13 14 15 16 17 18 19 20 21 22 23 24 25 26 27
000
ASUS41 KAKQ 231915
RWRAKQ

REGIONAL WEATHER ROUNDUP
NATIONAL WEATHER SERVICE WAKEFIELD VA
300 PM EDT WED AUG 23 2017

Note: "fair" indicates few or no clouds below 12,000 feet with no
significant weather and/or obstructions to visibility. * = Denotes
station may not report precipitation (e.g., rain,snow,etc.),
thunder or fog.

VAZ042-051-052>054-056-232000-
NORTHERN VIRGINIA

CITY           SKY/WX    TMP DP  RH WIND       PRES   REMARKS
WASH NATIONAL  PTSUNNY   83  63  50 NW10      29.87F
DULLES         PTSUNNY   82  63  52 VRB6      29.88F
FORT BELVOIR   CLOUDY    82  67  59 NE3       29.87F
QUANTICO       CLOUDY    79  68  69 S5        29.88F
FREDERICKSBRG* LGT RAIN  72  70  93 S5        29.88F
STAFFORD*      CLOUDY    76  70  82 SE3       29.92F
WARRENTON      CLOUDY    83  60  46 N5        29.87F
CULPEPER*      CLOUDY    82  67  59 E6        29.88F
MANASSAS*      CLOUDY    83  64  52 NE8       29.88F
LEESBURG*      SUNNY     82  63  51 N10G18    29.90F
WINCHESTER     MOSUNNY   79  59  50 NW10G16   29.90F
FRONT ROYAL*   MOCLDY    81  63  54 CALM      29.88F
LURAY*         MOCLDY    81  63  54 E3        29.89S
$$

VAZ048-049-060>072-079>083-232000-
CENTRAL AND SOUTH CENTRAL VIRGINIA

CITY           SKY/WX    TMP DP  RH WIND       PRES   REMARKS
RICHMOND       TSTM      77  69  76 N12       29.87R
CHESTERFIELD*  HVY RAIN  74  70  87 N9G18     29.87S
PETERSBURG*    TSTM      77  73  88 N6        29.86R
HANOVER        CLOUDY    75  67  76 VRB6      29.89F
TAPPAHANNOCK*  LGT RAIN  80  66  62 N7        29.89S
QUINTON*       CLOUDY   N/A N/A N/A N3        29.85S
CHARLOTTSVILLE MOSUNNY   83  69  62 E7        29.88F
GORDONSVILLE*  CLOUDY    78  71  80 E6        29.89F
ORANGE*        CLOUDY    77  68  73 SE7       29.88F
LOUISA*        CLOUDY    72  68  88 E3        29.90S
BUMPASS*       CLOUDY    70  70  99 E3        29.90F
FARMVILLE*     CLOUDY    79  68  67 NE7       29.87F
CREWE*         CLOUDY    74  70  87 N5        29.88S
FORT PICKETT*  MOCLDY   N/A N/A N/A E6        29.87F
CHASE CITY*    CLOUDY    86  69  55 NW6       29.85F
CLARKSVILLE*   FAIR      88  70  55 W6        29.85S
SOUTH HILL*    PTSUNNY   86  74  66 W3        29.89F
LAWRENCEVILLE* CLOUDY    81  74  80 N8G18     29.84S
EMPORIA*       CLOUDY    82  73  74 E5        29.82F
$$

VAZ088>098-232000-
SOUTHEAST VIRGINIA

CITY           SKY/WX    TMP DP  RH WIND       PRES   REMARKS
NORFOLK        CLOUDY    86  75  69 NE10      29.82F HX  95
VIRGINIA BEACH TSTM      83  73  72 NE8       29.81F
NORFOLK NAVAL  MOSUNNY   89  73  59 NE12      29.83F HX  97
WEST POINT*    MOSUNNY   83  67  57 N7        29.86S
SALUDA*        MOCLDY    83  72  68 N7        29.84F
NEWPORT NEWS   MOSUNNY   86  74  67 E13       29.83F
LANGLEY AFB    MOSUNNY   85  74  69 E12       29.82F
FORT EUSTIS    MOSUNNY   90  74  59 E5        29.80F HX 100
WILLIAMSBURG*  MOSUNNY   82  73  74 CALM      29.85R
HR EXEC AP*    CLOUDY    88  75  66 N5          N/A  HX  97
FRANKLIN*      CLOUDY    84  74  73 N3        29.82F
US460-WAKEFLD  CLOUDY    88  74  63 VRB3      29.81F HX  96
$$

VAZ020-022-025-037-045-232000-
WEST CENTRAL AND SOUTHWEST VIRGINIA

CITY           SKY/WX    TMP DP  RH WIND       PRES   REMARKS
STAUNTON*      PTSUNNY   81  66  59 NE3       29.91F
WAYNESBORO*    PTCLDY    83  66  56 W7        29.91F
HOT SPRINGS VA PTSUNNY   75  50  41 W10       30.05F
LYNCHBURG      MOSUNNY   84  65  52 CALM      29.89F
DANVILLE       PTSUNNY   88  71  57 N8        29.88S
SOUTH BOSTON*  MOCLDY    87  69  53 NW8       29.86F
MARTINSVILLE   CLOUDY    84  67  57 CALM      29.92F
ROANOKE        PTSUNNY   87  59  38 W16       29.91F
BLACKSBURG     MOSUNNY   80  64  58 W5        30.00F
DUBLIN*        MOSUNNY   81  64  57 N7        29.99F
MARION*        PTSUNNY   77  43  29 NW7       30.03F
HILLSVILLE*    MOSUNNY   78  56  45 CALM      29.99F
RICHLANDS*     FAIR      77  59  55 NW7       30.03F
WISE*          CLOUDY    75  55  50 CALM      30.05F
ABINGDON*      PTSUNNY   81  62  52 NW3       30.00F
$$

MDZ021>025-VAZ099-100-232000-
SOUTHERN MARYLAND AND THE DELMARVA PENINSULA

CITY           SKY/WX    TMP DP  RH WIND       PRES   REMARKS
PATUXENT RIVER CLOUDY    78  71  79 NW10      29.87S
BAY BRIDGE APT CLOUDY    79  66  65 CALM      29.87F
LEONARDTOWN    CLOUDY    75  70  83 CALM      29.89F
DOVER          CLOUDY    81  66  61 NW7       29.86R
GEORGETOWN     CLOUDY    81  70  69 N6        29.86S
EASTON         RAIN      79  72  78 NW8       29.92R
CAMBRIDGE      CLOUDY    79  70  73 N6        29.86F
SALISBURY      CLOUDY    82  73  74 N7        29.84F
OCEAN CITY     CLOUDY    80  73  79 E7        29.85F
WALLOPS ISLAND CLOUDY    82  76  81 NE13      29.83F
ACCOMACK*      MOSUNNY   85  73  67 NW9       29.83F
$$

NCZ012>017-030>032-232000-
NORTH CENTRAL AND EASTERN NORTH CAROLINA

CITY           SKY/WX    TMP DP  RH WIND       PRES   REMARKS
ROANOKE RAPIDS FAIR      91  73  55 CALM      29.82F HX 100
RALEIGH        PTSUNNY   91  72  53 NE8       29.84F THUNDER HX  98
ELIZABETH CITY SUNNY     91  78  65 S8        29.81F HX 106
AHOSKIE*         N/A     89  76  65 CALM      29.81F HX  99
EDENTON*       SUNNY     91  77  62 CALM      29.82F HX 104
CURRITUCK*     PTSUNNY   89  78  70 CALM      29.81F HX 103
KILL DEVIL HLS PTSUNNY   78  71  77 CALM      29.84F
MANTEO         LGT RAIN  79  71  75 S7        29.87S
CAPE HATTERAS  SUNNY     88  80  77 SW9G17    29.87F HX 104
TARBORO*       NOT AVBL
GOLDSBORO      MOSUNNY   94  73  50 W6        29.82F HX 103
WASHINGTON     MOSUNNY   90  75  61 SW5       29.82F HX  99
GREENVILLE     SUNNY     91  73  55 W3        29.85F HX 100
NEW BERN       MOSUNNY   92  75  57 SW9       29.84F HX 103
WILMINGTON     MOSUNNY   92  74  55 S6        29.85F HX 101
$$

VAZ048-232000-
ELSEWHERE

CITY           SKY/WX    TMP DP  RH WIND       PRES   REMARKS
HARRISBURG PA  MOSUNNY   80  56  43 W12       29.88F
BALTIMORE      PTSUNNY   82  63  52 NW7G17    29.87F
ANNAPOLIS      CLOUDY    81  69  67 E3        29.86F
ANDREWS AFB    PTSUNNY   81  65  58 N5        29.86F
PHILADELPHIA   PTSUNNY   83  56  39 N13G20    29.86F
HENDERSON NC   MOSUNNY   82  67  61 NW6       29.86S
GREENSBORO     CLOUDY    84  70  62 NW13      29.88F
ROCKY MOUNT    LGT RAIN  88  76  67 SW12G17   29.83F HX  99
$$

VAZ100-232000-
MARINE

STATION/POSITION TIME  TEMP    WIND        PRES    WAVE   SWELL
                       AIR SEA DIR/SP/G            HT/PER HT/PER
                 (UTC) (F)     (DEG/KT/KT) (MB)    (FT/S) (FT/S)
BRANDYWINE LGT   1848   78     340/  8/ 10 1011.2F
CAPE MAY NJ      1848   80 78  320/  9/ 13 1010.2F
LEWES DE         1848   78 79  350/ 11/ 12 1010.5F
15NM E FENWICK I 1850   78 78  320/ 10/ 12 1011.3S   3/ 6   3/ 6
OCEAN-CITY-INLET 1848   79 75   70/  6/  9 1011.0F
WACHAPREAGUE VA  1848   89 87  300/  4/  8 1010.2F
THOMAS POINT MD  1900   78 81   70/  5/  6   N/A
GOOSES REEF MD   1850   79      40/  8/ 10 1012.3F
COVE POINT MD    1848   78     360/  8/ 12 1012.0F
SOLOMONS ISLAND  1848   78 82  320/  6/  9   N/A
BISHOPS HEAD MD  1848   79 83  330/  9/ 13 1011.1F
PINEY POINT MD   1848           10/ 11/ 12   N/A
POTOMAC MD       1850   80     340/ 10/ 12 1010.4F
CAMBRIDGE MD     1848   79 82              1012.1F
LEWISETTA VA     1848   80 82   10/  9/ 12 1011.1F
RAPPAHANNOCK LGT 1848          350/ 11/ 12 1010.8F
STINGRAY PT      1850   82      40/ 10/ 12 1010.8F
YORK RVR RNG VA  1848   82      60/ 13/ 15 1010.4F
YORKTOWN VA      1848   83 83   80/ 13/ 15 1009.5F
JAMESTOWN VA     1850           20/ 10/ 14   N/A
DOMINION TERM VA 1848   86      60/  4/  8 1009.9F
KIPTOPEKE VA     1848      81  340/  9/ 12   N/A
CHES BAY BRIDGE  1848   81 82   60/ 10/ 11 1009.7F
CAPE HENRY VA    1848   81      10/  7/  8   N/A
WILLOUBY STN VA  1848   82      50/ 11/ 11 1010.0F
S CRANEY ISL VA  1848   84      50/ 10/ 12 1009.5F
CAPE HENRY BUOY  1830      81                N/A     2/ 8
1ST LANDING BUOY 1850   82                 1009.8F
64NM E OF VA BCH 1850   80 80  220/  4/  6 1011.1F   4/ 8   3/ 8
DUCK PIER NC     1848   78 66  160/ 19/ 24 1009.6F
44100 DUCK FRF   1805      82                N/A     2/ 9   2/11
44056 DUCK FRF   1830      78                N/A     2/ 9
OREGON INLET NC  1842   80 84  190/  8/ 10 1011.0F
HATTERAS NC      1848   84 81  220/ 11/ 15 1011.3F
DIAMOND SHLS NC  1850   83 85  230/ 16/ 17 1011.5F   4/ 9   2/ 9
CAPE LOOKOUT NC  1800   85     230/ 11/ 15 1011.7F
$$




USA.gov is the U.S. government's official web portal to all federal, state and local government web resources and services.